Regional Weather Roundup
Issued by NWS

Home | Current Version | Previous Version | Graphics & Text | Print | Product List | Glossary On
Versions: 1 2 3 4 5 6 7 8 9 10 11 12 13 14 15 16 17 18 19 20 21 22 23 24 25 26 27 28 29 30 31 32 33 34 35 36 37 38 39 40 41 42 43 44 45 46 47 48 49 50
000
ASUS45 KBOU 271507
RWRCO

WEATHER ROUNDUP FOR COLORADO
NATIONAL WEATHER SERVICE DENVER/BOULDER CO
900 AM MDT FRI MAR 27 2015

NOTE: "FAIR" INDICATES FEW OR NO CLOUDS BELOW 12000 FEET WITH NO
SIGNIFICANT WEATHER AND/OR OBSTRUCTIONS TO VISIBILITY.

COZ001>005-013-030-031-271600-
...NORTHWEST COLORADO...

CITY           SKY/WX    TMP DP  RH WIND       PRES   REMARKS
CRAIG          SUNNY     37  30  75 CALM      30.35S
HAYDEN         SUNNY     36  28  75 E5        30.34F
MEEKER         SUNNY     41  28  60 CALM      30.36S
MOUNT WERNER   NOT AVBL
STEAMBOAT SPGS SUNNY     33  28  82 CALM      30.35F
WALDEN         MOSUNNY   37  30  75 CALM      30.33S
$$

COZ006>008-011-271600-
...WEST CENTRAL VALLEYS...

CITY           SKY/WX    TMP DP  RH WIND       PRES   REMARKS
GRAND JUNCTION SUNNY     46  24  42 S9        30.33R
MONTROSE       SUNNY     43  25  49 S5        30.37S
EAGLE          SUNNY     36  27  69 CALM      30.39S
RIFLE          SUNNY     38  25  59 E3        30.37S
DELTA          SUNNY     42  25  50 CALM      30.37S
NUCLA          SUNNY     41  23  48 CALM      30.40S
$$

COZ017>023-064>068-271600-
...SOUTHWEST COLORADO...

CITY           SKY/WX    TMP DP  RH WIND       PRES   REMARKS
DURANGO        SUNNY     40  24  53 CALM      30.34S
CORTEZ         SUNNY     44  23  43 E6        30.34S
PAGOSA SPRINGS SUNNY     42  21  42 CALM      30.36S
TELLURIDE      SUNNY     38  23  54 CALM      30.44S
WOLF CREEK PAS SUNNY     32  14  47 W5        30.51R WCI  27
$$

COZ009-010-012-014-032>034-037-058>063-271600-
...CENTRAL COLORADO...

CITY           SKY/WX    TMP DP  RH WIND       PRES   REMARKS
ASPEN          SUNNY     37  24  59 SE3       30.37F
BUENA VISTA    SUNNY     44  24  44 N12       30.33S
COPPER MTN     PTSUNNY   28  21  74 S6        30.44R WCI  22
BERTHOUD PASS  CLOUDY    19  12  73 NW33      30.39R WCI   0
COTTONWOOD PAS SUNNY     41  19  42 W13       30.37S
GUNNISON       SUNNY     30  21  69 CALM      30.43S
KREMMLING      PTSUNNY   34  28  80 S3        30.37S
LEADVILLE      SUNNY     32  19  58 N6        30.38S WCI  26
SALIDA         SUNNY     47  23  38 NW9       30.39S
SUNLIGHT       SUNNY     32  27  80 SW5         N/A  WCI  27
WILKERSON PASS SUNNY     34  18  51 SW5       30.40F WCI  30
$$

COZ069>075-271600-
...SAN LUIS VALLEY/SANGRE DE CRISTO MOUNTAINS...

CITY           SKY/WX    TMP DP  RH WIND       PRES   REMARKS
ALAMOSA        SUNNY     42  21  43 W3        30.35R
LA VETA PASS   SUNNY     34  19  55 S5        30.37S WCI  30
SAGUACHE       SUNNY     46  21  36 N7        30.36S
$$

COZ035-036-038>040-271600-
...NORTHERN COLORADO FRONT RANGE...

CITY           SKY/WX    TMP DP  RH WIND       PRES   REMARKS
DENVER INTL AP MOSUNNY   53  32  44 SW8       30.18S
DMNS CITY PARK   N/A     51  29  42 S3        30.18F
AURORA         NOT AVBL
FRONT RANGE AP MOSUNNY   55  34  44 SW7       30.19S
ERIE MUNI ARPT SUNNY     50  35  55 CALM      30.18S
BOULDER MUN AP SUNNY     52  32  46 NE3       30.17S
CENTENNIAL     MOSUNNY   49  34  56 SE5       30.19F
BROOMFIELD     PTSUNNY   57  28  33 NW6       30.19S
FORT COLLINS   MOSUNNY   48  34  57 W5        30.19S
LONGMONT       MOSUNNY   52  34  50 NW3       30.19S
$$

COZ041-046-047-076>085-087-088-271600-
...PIKES PEAK/PALMER DIVIDE AND SOUTHERN FOOTHILLS...

CITY           SKY/WX    TMP DP  RH WIND       PRES   REMARKS
COLO. SPRINGS  MOSUNNY   50  26  39 NW5       30.23S
A. F. ACADEMY  NOT AVBL
ELLICOTT       SUNNY    N/A N/A N/A NW3       30.22R
FALCON         SUNNY     53  25  33 N6        30.24S
FORT CARSON    NOT AVBL
LIMON          PTSUNNY   48  33  56 NW3       30.20R
MONUMENT HILL  SUNNY     48  27  43 W5        30.23S
TRINIDAD       SUNNY     48  27  44 W6        30.23R
$$

COZ042>045-048>051-090-091-271600-
...NORTHEAST COLORADO...

CITY           SKY/WX    TMP DP  RH WIND       PRES   REMARKS
GREELEY ARPT   PTSUNNY   46  28  49 SW7       30.16S
AKRON          PTSUNNY   40  33  76 S8        30.17F
BURLINGTON     PTSUNNY   37  29  72 S9        30.21S
WRAY           CLOUDY    39  32  75 S7        30.19F
STERLING       PTSUNNY   39  32  75 SW10      30.16F
HOLYOKE        PTSUNNY   41  36  81 SW12      30.17F
FORT MORGAN    PTSUNNY   38  32  77 CALM      30.18S
$$

COZ086-089-092>099-271600-
...SOUTHEAST COLORADO...

CITY           SKY/WX    TMP DP  RH WIND       PRES   REMARKS
PUEBLO         SUNNY     46  32  58 W6        30.22R
LA JUNTA       SUNNY     45  29  53 NW3       30.21R
LAMAR          MOSUNNY   40  32  73 E10       30.22R
SPRINGFIELD      N/A     44  31  60 E7        30.21R
$$



USA.gov is the U.S. government's official web portal to all federal, state and local government web resources and services.